Change the Weather History Date:

Tuesday, January 20, 2015

  Actual Average Record
Temperature  
Mean Temperature 30 °F 25 °F  
Max Temperature 34 °F 32 °F 67 °F (1965)
Min Temperature 25 °F 18 °F -12 °F (1985)
Degree Days  
Heating Degree Days 35 40  
Month to date heating degree days 851 793  
Since 1 July heating degree days 3368 3377  
Cooling Degree Days 0 0  
Month to date cooling degree days 0 0  
Year to date cooling degree days 0 0  
Moisture  
Dew Point 26 °F    
Average Humidity 81    
Maximum Humidity 92    
Minimum Humidity 69    
Precipitation  
Precipitation 0.02 in 0.07 in 1.52 in (1937)
Month to date precipitation 0.91 2.03  
Year to date precipitation 0.91 2.03  
Sea Level Pressure  
Sea Level Pressure 29.93 in    
Wind  
Wind Speed 4 mph (West)    
Max Wind Speed 13 mph    
Max Gust Speed 17 mph    
Visibility 5 miles    
Events Fog , Snow    
T = Trace of Precipitation, MM = Missing Value Source: NWS Daily Summary

Daily Weather History Graph

Daily Weather History Graph

Search for Another Location

Airport or City:

Trip Planner

Search our weather history database for the weather conditions in past years. The results will help you decide how hot, cold, wet, or windy it might be!

Date:

Astronomy

Jan. 20, 2015 Rise Set
Actual Time 7:33 AM EST 5:19 PM EST
Civil Twilight 7:04 AM EST 5:48 PM EST
Nautical Twilight 6:30 AM EST 6:22 PM EST
Astronomical Twilight 5:58 AM EST 6:54 PM EST
Moon 7:15 AM EST (1/20) 5:54 PM EST (1/20)
Length of Visible Light 10h 44m
Length of Day
9h 45m
New Moon, 0% of the Moon is Illuminated
Jan 20
New Moon
Jan 26
First Quarter
Feb 3
Full
Feb 11
Last Quarter
Feb 18
New

Hourly Weather History & Observations

Time (EST) Temp. Windchill Dew Point Humidity Pressure Visibility Wind Dir Wind Speed Gust Speed Precip Events Conditions
12:54 AM 27.0 °F 21.6 °F 21.9 °F 81% 29.91 in 10.0 mi West 4.6 mph - N/A   Partly Cloudy
1:54 AM 27.0 °F - 23.0 °F 85% 29.91 in 9.0 mi Calm Calm - N/A   Mostly Cloudy
2:54 AM 27.0 °F 21.6 °F 21.9 °F 81% 29.89 in 10.0 mi SSW 4.6 mph - N/A   Overcast
3:54 AM 27.0 °F 21.6 °F 21.0 °F 78% 29.89 in 10.0 mi WSW 4.6 mph - N/A   Overcast
4:54 AM 27.0 °F 23.0 °F 21.9 °F 81% 29.89 in 10.0 mi West 3.5 mph - N/A   Overcast
5:54 AM 27.0 °F 23.0 °F 21.0 °F 78% 29.89 in 10.0 mi WSW 3.5 mph - N/A   Overcast
6:54 AM 27.0 °F - 21.0 °F 78% 29.89 in 10.0 mi Calm Calm - N/A   Partly Cloudy
7:54 AM 26.1 °F 21.9 °F 21.0 °F 81% 29.90 in 10.0 mi SW 3.5 mph - N/A   Mostly Cloudy
8:54 AM 28.0 °F - 23.0 °F 81% 29.92 in 10.0 mi Calm Calm - N/A   Overcast
9:54 AM 30.0 °F 26.5 °F 23.0 °F 75% 29.93 in 10.0 mi WSW 3.5 mph - N/A   Overcast
10:54 AM 32.0 °F - 24.1 °F 73% 29.91 in 10.0 mi Calm Calm - N/A   Clear
11:54 AM 33.1 °F 30.0 °F 24.1 °F 70% 29.91 in 10.0 mi WNW 3.5 mph - N/A   Overcast
12:54 PM 33.1 °F 27.7 °F 25.0 °F 72% 29.91 in 8.0 mi WNW 5.8 mph - N/A   Overcast
1:35 PM 32.0 °F 24.2 °F 26.1 °F 79% 29.86 in 1.8 mi WNW 9.2 mph - 0.00 in Snow Light Snow
1:49 PM 30.2 °F 23.4 °F 26.6 °F 86% 29.86 in 1.2 mi WNW 6.9 mph - 0.00 in Snow Light Snow
1:54 PM 30.9 °F 23.5 °F 26.1 °F 82% 29.94 in 0.5 mi WNW 8.1 mph - 0.00 in Snow Snow
2:16 PM 30.0 °F 22.4 °F 28.0 °F 92% 29.86 in 0.5 mi WNW 8.1 mph - 0.01 in Fog , Snow Snow
2:34 PM 30.0 °F 24.1 °F 28.0 °F 92% 29.86 in 0.5 mi West 5.8 mph - 0.02 in Fog , Snow Snow
2:54 PM 30.0 °F 24.1 °F 28.0 °F 92% 29.93 in 1.0 mi WNW 5.8 mph - 0.02 in Snow Light Snow
3:18 PM 30.9 °F 26.2 °F 28.0 °F 89% 29.84 in 3.0 mi WSW 4.6 mph - 0.00 in Snow Light Snow
3:38 PM 30.9 °F 26.2 °F 28.0 °F 89% 29.85 in 7.0 mi West 4.6 mph - 0.00 in   Mostly Cloudy
3:54 PM 30.9 °F 25.2 °F 28.0 °F 89% 29.93 in 8.0 mi NW 5.8 mph - 0.00 in   Overcast
4:23 PM 30.9 °F 25.2 °F 28.0 °F 89% 29.87 in 9.0 mi WNW 5.8 mph - N/A   Overcast
4:32 PM 30.9 °F 23.5 °F 28.0 °F 89% 29.87 in 8.0 mi WNW 8.1 mph - N/A   Overcast
4:52 PM 30.2 °F 22.6 °F 28.4 °F 93% 29.89 in 2.5 mi WNW 8.1 mph - N/A   Overcast
4:54 PM 30.0 °F 21.7 °F 28.0 °F 92% 29.96 in 2.5 mi WNW 9.2 mph - N/A   Overcast
5:16 PM 30.0 °F 24.1 °F 28.0 °F 92% 29.88 in 3.0 mi WNW 5.8 mph - N/A   Overcast
5:54 PM 30.0 °F 26.5 °F 28.0 °F 92% 29.97 in 5.0 mi Variable 3.5 mph - N/A   Overcast
6:54 PM 30.0 °F 24.1 °F 28.0 °F 92% 29.99 in 3.0 mi WNW 5.8 mph - N/A   Overcast
7:24 PM 30.0 °F 21.7 °F 28.0 °F 92% 29.93 in 1.5 mi WNW 9.2 mph - N/A   Overcast
7:32 PM 30.0 °F 22.4 °F 28.0 °F 92% 29.93 in 0.8 mi West 8.1 mph - N/A   Mist
7:52 PM 30.2 °F 21.3 °F 28.4 °F 93% 29.93 in 0.2 mi WNW 10.4 mph - N/A Fog Light Freezing Fog
7:54 PM 30.0 °F 21.1 °F 28.0 °F 92% 30.01 in 0.2 mi WNW 10.4 mph - N/A Fog Light Freezing Fog
8:37 PM 28.9 °F 20.4 °F 27.0 °F 92% 29.94 in 0.5 mi WNW 9.2 mph - N/A Fog Light Freezing Fog
8:54 PM 28.9 °F 21.1 °F 27.0 °F 92% 30.01 in 0.5 mi NNW 8.1 mph - N/A Fog Light Freezing Fog
9:12 PM 28.0 °F 22.8 °F 27.0 °F 96% 29.94 in 0.2 mi NW 4.6 mph - N/A Fog Light Freezing Fog
9:29 PM 28.0 °F 22.8 °F 27.0 °F 96% 29.94 in 0.5 mi WNW 4.6 mph - N/A Fog Light Freezing Fog
9:43 PM 28.0 °F 24.2 °F 27.0 °F 96% 29.94 in 1.5 mi WSW 3.5 mph - N/A   Overcast
9:54 PM 28.0 °F 22.8 °F 26.1 °F 92% 30.03 in 1.8 mi WSW 4.6 mph - N/A   Overcast
9:57 PM 28.0 °F 22.8 °F 26.1 °F 92% 29.95 in 2.0 mi West 4.6 mph - N/A   Overcast
10:42 PM 28.0 °F 24.2 °F 26.1 °F 92% 29.96 in 4.0 mi West 3.5 mph - N/A   Overcast
10:51 PM 28.4 °F 24.6 °F 26.6 °F 93% 29.96 in 4.0 mi SSW 3.5 mph - N/A   Overcast
10:54 PM 28.0 °F - 26.1 °F 92% 30.04 in 4.0 mi Calm Calm - N/A   Overcast
11:54 PM 28.9 °F - 25.0 °F 85% 30.04 in 5.0 mi Calm Calm - N/A   Overcast